Hourly Weather Roundup
Issued by NWS Central Illinois

Home | Current Version | Previous Version | Text Only | Print | Product List | Glossary On
Versions: 1 2 3 4 5 6 7 8 9 10 11 12 13 14 15 16 17 18 19 20 21 22 23 24 25 26 27 28 29 30 31 32 33 34 35 36 37 38 39 40 41 42 43 44 45 46 47 48 49 50
000
NZUS43 KILX 200010
HWRILX

Area Weather Roundup
National Weather Service Lincoln IL
700 PM CDT WED JUL 19 2017

NOTE:  "FAIR" indicates few or no clouds below 12,000 feet, with
       no sigificant weather and/or obstructions to visibility.


CITY           SKY/WX    TMP DP  RH WIND       PRES   REMARKS
Bloomington    SUNNY     88  72  58 SW9       30.06F HX  94
6HR MIN TEMP:  88; 6HR MAX TEMP:  93;

Champaign      SUNNY     86  77  74 S6        30.06F HX  97
6HR MIN TEMP:  86; 6HR MAX TEMP:  90;

Danville       CLOUDY    85  78  81 CALM      30.04F HX  96
6HR MIN TEMP:  83; 6HR MAX TEMP:  87;

Decatur        SUNNY     89  77  67 SE6       30.05F HX 101
6HR MIN TEMP:  88; 6HR MAX TEMP:  92;

Effingham      SUNNY     92  72  50 CALM      30.07S HX  99
6HR MIN TEMP:  91; 6HR MAX TEMP:  95;

Flora          SUNNY     92  78  64 E7        30.05S HX 107
6HR MIN TEMP:  91; 6HR MAX TEMP:  96;

Galesburg      SUNNY     87  76  69 S5        30.03F HX  97
6HR MIN TEMP:  87; 6HR MAX TEMP:  91;

Jacksonville   SUNNY     89  73  58 W3        30.04S HX  96
6HR MIN TEMP:  89; 6HR MAX TEMP:  93;

Lacon          SUNNY     89  75  64 SW3       30.02S HX  99
6HR MIN TEMP:  88; 6HR MAX TEMP:  91;

Lawrenceville  SUNNY     88  76  67 SE5       30.06F HX  99
6HR MIN TEMP:  87; 6HR MAX TEMP:  91;

Litchfield     SUNNY     87  76  69 S5        30.05S HX  98
6HR MIN TEMP:  87; 6HR MAX TEMP:  93;

$$


CITY           SKY/WX    TMP DP  RH WIND       PRES   REMARKS
Lincoln        NOT AVBL
Macomb         SUNNY     87  71  57 S5        30.05F HX  93
6HR MIN TEMP:  87; 6HR MAX TEMP:  91;

Mattoon        SUNNY     89  76  65 SW3       30.05F HX 100
6HR MIN TEMP:  87; 6HR MAX TEMP:  93;

Mt Carmel AP   SUNNY     87  75  66 SE5       30.06S HX  97
6HR MIN TEMP:  87; 6HR MAX TEMP:  90;

Olney-Noble AP SUNNY     89  77  67 S3        30.06S HX 101
Paris AP       SUNNY     85  79  81 SE5       30.07S HX  98
Peoria         SUNNY     89  75  63 S7        30.03S HX  99
6HR MIN TEMP:  89; 6HR MAX TEMP:  93;

Pontiac        SUNNY     89  78  70 CALM      30.05R HX 102
6HR MIN TEMP:  87; 6HR MAX TEMP:  91;

Rantoul        SUNNY     88  80  77 SE5       30.06S HX 104
6HR MIN TEMP:  87; 6HR MAX TEMP:  91;

Robinson       SUNNY     85  74  69 SE5       30.07S HX  93
6HR MIN TEMP:  85; 6HR MAX TEMP:  91;

Springfield    SUNNY     92  75  57 SW5       30.04S HX 103
6HR MIN TEMP:  92; 6HR MAX TEMP:  96;

Taylorville    SUNNY     89  75  62 S3        30.05S HX  99
6HR MIN TEMP:  89; 6HR MAX TEMP:  93;

$$

...REGIONAL REPORTS...


CITY           SKY/WX    TMP DP  RH WIND       PRES   REMARKS
Chicago O`Hare PTSUNNY   82  68  62 NE7       30.05S HX  85
Kankakee       CLOUDY    85  77  76 NE7       30.05S HX  95
Moline         SUNNY     89  73  59 SE3       30.00F HX  97
Mount Sterling SUNNY     88  76  67 S3        30.04S HX  98
Mount Vernon   SUNNY     91  76  61 SW7       30.06S HX 103
Pittsfield     SUNNY     88  74  61 SW3       30.05S HX  96
Quincy         MOSUNNY   91  74  57 SW8       30.03S HX 100
Rockford       PTSUNNY   87  74  64 S6        30.04R HX  95
$$


CITY           SKY/WX    TMP DP  RH WIND       PRES   REMARKS
Burlington     SUNNY     88  75  65 S9        30.00F HX  97
Cedar Rapids   MOSUNNY   86  76  71 SE7       29.98F HX  96
Des Moines     PTSUNNY   91  72  53 S13       29.95S HX  98
Kirksville     SUNNY     87  75  67 S10       30.03F HX  96
Ottumwa        SUNNY     90  70  51 S10       29.96F HX  95
St Louis       PTSUNNY   97  67  37 NW3       30.04F HX 101
$$


CITY           SKY/WX    TMP DP  RH WIND       PRES   REMARKS
Terre Haute    SUNNY     86  73  65 S5        30.07F HX  93
Evansville     SUNNY     89  72  56 SE6       30.07S HX  96
Indianapolis   MOSUNNY   85  72  65 W8        30.07F HX  91
Lafayette      SUNNY     84  74  71 S6        30.05F HX  91
Madison        CLOUDY    80  72  76 SE7       30.02F HX  84
Milwaukee      PTSUNNY   74  56  53 NE7       30.06S
$$






USA.gov is the U.S. government's official web portal to all federal, state and local government web resources and services.